Retour au catalogue

ARIANE 44L DEB

ActifHEO
NORAD 24723·DEBRIS·🇫🇷 France

Lancé Jan 15, 1991 depuis Guiana Space Centre

Loading…

Prochains Passages (prochaines 24 heures)

TLE

FraisSource: Space-Track

Époque: Sep 14, 2026, 16:15 UTC

1 24723U 91003F   26257.67719480 -.00000100  00000-0  50272-3 0  9996
2 24723   6.7620  44.4427 6845865 119.6194 302.1186  2.65128094293629

Suivez ARIANE 44L DEB en temps réel avec AllMySat

Download on the App Store